Regional Weather Roundup
Issued by NWS

Home | Current Version | Previous Version | Graphics & Text | Print | Product List | Glossary On
Versions: 1 2 3 4 5 6 7 8 9 10 11 12 13 14 15 16 17 18 19 20 21 22 23 24 25 26 27 28 29 30 31 32 33 34 35 36 37 38 39 40 41 42 43 44 45 46 47 48 49 50
000
ASUS43 KDTX 230001
RWRMI
MICHIGAN HOURLY REGIONAL WEATHER ROUNDUP
NATIONAL WEATHER SERVICE DETROIT/PONTIAC MI
700 PM EST THU FEB 22 2018

NOTE: "FAIR" INDICATES FEW OR NO CLOUDS BELOW 12,000 FEET WITH NO
SIGNIFICANT WEATHER AND/OR OBSTRUCTION TO VISIBILITY.

MIZ047>049-052>055-059>063-066>070-074>076-081>083-230100-
SOUTHEAST LOWER MICHIGAN

CITY           SKY/WX    TMP DP  RH WIND       PRES   REMARKS
ADRIAN         CLOUDY    36  30  79 E15       30.52R WCI  27
6HR MIN TEMP:  36; 6HR MAX TEMP:  40;

ANN ARBOR      CLOUDY    37  26  64 NE9       30.50F WCI  30
BAD AXE        FAIR      28  22  77 NE7       30.60F WCI  21
6HR MIN TEMP:  28; 6HR MAX TEMP:  33;

CARO           FAIR      31  23  72 NE8       30.56F WCI  23
DETROIT CITY   MOCLDY    35  25  66 NE8       30.55S WCI  29
6HR MIN TEMP:  34; 6HR MAX TEMP:  38;

DETROIT        MOCLDY    37  26  64 NE10      30.53F WCI  30
6HR MIN TEMP:  37; 6HR MAX TEMP:  42;

FLINT          CLOUDY    34  24  67 E13       30.54F WCI  25
6HR MIN TEMP:  34; 6HR MAX TEMP:  38;

GROSSE ILE     CLOUDY    35  28  75 NE8       30.53R WCI  29
6HR MIN TEMP:  35; 6HR MAX TEMP:  38;

HILLSDALE      MOCLDY    36  30  80 E8        30.47R WCI  29
HOWELL         FAIR      37  24  58 E7        30.51R WCI  32
6HR MIN TEMP:  35; 6HR MAX TEMP:  41;


CITY           SKY/WX    TMP DP  RH WIND       PRES   REMARKS
JACKSON        CLOUDY    39  26  59 E10       30.48S WCI  32
6HR MIN TEMP:  37; 6HR MAX TEMP:  42;

LAMBERTVILLE   CLOUDY    32  28  85 E10       30.52R WCI  24
6HR MIN TEMP:  32; 6HR MAX TEMP:  36;

LANSING        FAIR      34  24  67 NE9       30.51F WCI  27
6HR MIN TEMP:  34; 6HR MAX TEMP:  41;

LAPEER         MOCLDY    32  25  76 NE5       30.56F WCI  27
6HR MIN TEMP:  32; 6HR MAX TEMP:  37;

MASON          MOCLDY    38  23  54 NE7       30.49F WCI  33
6HR MIN TEMP:  36; 6HR MAX TEMP:  42;

MONROE         CLOUDY    34  29  81 E6        30.51R WCI  29
6HR MIN TEMP:  34; 6HR MAX TEMP:  38;

MT. CLEMENS    CLOUDY    34  29  83 NE9       30.54S WCI  27
6HR MIN TEMP:  34; 6HR MAX TEMP:  39;

PONTIAC        MOCLDY    34  24  67 NE7       30.51F WCI  28
6HR MIN TEMP:  34; 6HR MAX TEMP:  39;

PORT HOPE        N/A     30  23  75 NE14      30.59F WCI  19
6HR MIN TEMP:  29; 6HR MAX TEMP:  30;

PORT HURON     MOCLDY    30  25  80 N7        30.57F WCI  23
TRI CITIES     CLOUDY    30  24  78 NE17      30.58F WCI  18
6HR MIN TEMP:  30; 6HR MAX TEMP:  35;

MIDLAND        MOCLDY    30  23  75 NE9       30.58S WCI  22
6HR MIN TEMP:  30; 6HR MAX TEMP:  34;

TROY           CLOUDY    37  26  66 NE8       30.55F WCI  30
SAGINAW HB     FAIR      32  28  86 NE7       30.56F WCI  26
$$
MIZ043>046-050>051-056>058-064>065-071>073-077>080-230100-
SOUTHWEST LOWER MICHIGAN

CITY           SKY/WX    TMP DP  RH WIND       PRES   REMARKS
BATTLE CREEK   FAIR      39  26  59 E10       30.45F WCI  32
6HR MIN TEMP:  37; 6HR MAX TEMP:  42;

BENTON HARBOR  FAIR      40  30  67 E9G20     30.44R WCI  34
6HR MIN TEMP:  38; 6HR MAX TEMP:  44;

BIG RAPIDS     CLOUDY    32  20  62 E9        30.52F WCI  24
6HR MIN TEMP:  32; 6HR MAX TEMP:  35;

COLDWATER      FAIR      38  32  79 E10       30.46F WCI  31
6HR MIN TEMP:  38; 6HR MAX TEMP:  41;

FREMONT        CLOUDY    35  17  49 E12       30.50S WCI  26
6HR MIN TEMP:  35; 6HR MAX TEMP:  37;

HOLLAND        CLOUDY    38  27  64 E12       30.48R WCI  30
6HR MIN TEMP:  37; 6HR MAX TEMP:  41;

GRAND RAPIDS   MOCLDY    36  27  69 NE10      30.49R WCI  28
6HR MIN TEMP:  36; 6HR MAX TEMP:  40;

IONIA          MOCLDY    35  26  68 NE10      30.51R WCI  28
6HR MIN TEMP:  35; 6HR MAX TEMP:  39;

KALAMAZOO      FAIR      40  28  62 E7        30.45F
6HR MIN TEMP:  39; 6HR MAX TEMP:  44;

LUDINGTON      CLOUDY    35  25  68 E9        30.50F WCI  27
6HR MIN TEMP:  35; 6HR MAX TEMP:  38;

MARSHALL       FAIR      38  28  67 E8        30.46F WCI  32
6HR MIN TEMP:  37; 6HR MAX TEMP:  42;

MOUNT PLEASANT CLOUDY    32  22  68 E8        30.55S WCI  25
6HR MIN TEMP:  32; 6HR MAX TEMP:  37;

MUSKEGON       CLOUDY    37  23  56 E13       30.49S WCI  29
6HR MIN TEMP:  37; 6HR MAX TEMP:  41;

SOUTH HAVEN    FAIR      40  28  64 E6        30.44R
$$
MIZ016>042-230100-
NORTHERN LOWER MICHIGAN

CITY           SKY/WX    TMP DP  RH WIND       PRES   REMARKS
ALPENA         CLOUDY    27  21  78 E5        30.64R WCI  22
6HR MIN TEMP:  27; 6HR MAX TEMP:  29;

BEAVER ISLAND  FAIR      29  23  79 E6        30.59S WCI  23
6HR MIN TEMP:  28; 6HR MAX TEMP:  31;

BELLAIRE       CLOUDY    33  25  73 SE3       30.58S
6HR MIN TEMP:  31; 6HR MAX TEMP:  34;

CADILLAC       CLOUDY    31  23  72 E9        30.51S WCI  23
CHARLEVOIX     CLOUDY    32  23  69 E7        30.61S WCI  26
6HR MIN TEMP:  30; 6HR MAX TEMP:  33;

FRANKFORT      MOCLDY    36  23  59 E5        30.53F WCI  32
GAYLORD        CLOUDY    29  21  72 VRB3      30.55R
6HR MIN TEMP:  26; 6HR MAX TEMP:  29;

GRAYLING       CLOUDY    30  22  70 SE7       30.56R WCI  23
6HR MIN TEMP:  29; 6HR MAX TEMP:  32;

HARBOR SPRINGS CLOUDY    30  21  68 E6        30.60R WCI  24
HOUGHTON LAKE  CLOUDY    30  19  63 E8        30.57R WCI  22
6HR MIN TEMP:  30; 6HR MAX TEMP:  34;

MANISTEE       MOCLDY    36  23  59 E8        30.52S WCI  30
OSCODA         CLOUDY    28  19  70 NE7       30.63R WCI  21
6HR MIN TEMP:  28; 6HR MAX TEMP:  32;

PELLSTON       CLOUDY    29  20  69 E7        30.61R WCI  22
6HR MIN TEMP:  29; 6HR MAX TEMP:  33;

ROGERS CITY    CLOUDY    26  17  69 SE5       30.65R WCI  20
TRAVERSE CITY  MOCLDY    36  23  59 SE6       30.55R WCI  31
6HR MIN TEMP:  30; 6HR MAX TEMP:  37;

$$
MIZ007>008-015-230100-
EASTERN UPPER MICHIGAN

CITY           SKY/WX    TMP DP  RH WIND       PRES   REMARKS
KINROSS        CLOUDY    25  18  74 SE12      30.62  WCI  14
6HR MIN TEMP:  25; 6HR MAX TEMP:  31;

MACKINAC ISLAN CLOUDY    26  19  74 E9G17     30.62R WCI  16
6HR MIN TEMP:  26; 6HR MAX TEMP:  28;

NEWBERRY       CLOUDY    26  18  72 SE10      30.58R WCI  16
6HR MIN TEMP:  26; 6HR MAX TEMP:  31;

S. S. MARIE    CLOUDY    27  16  63 S7        30.62R WCI  19
6HR MIN TEMP:  26; 6HR MAX TEMP:  30;

MUNISING         N/A     29  16  58 S10       30.57R WCI  20
6HR MIN TEMP:  28; 6HR MAX TEMP:  32;

$$
MIZ004>006-011>014-085-230100-
CENTRAL UPPER MICHIGAN

CITY           SKY/WX    TMP DP  RH WIND       PRES   REMARKS
MANISTIQUE     CLOUDY    27  24  87 E8        30.59R WCI  19
6HR MIN TEMP:  26; 6HR MAX TEMP:  28;

ESCANABA       CLOUDY    26  21  81 NE5       30.57F WCI  20
6HR MIN TEMP:  26; 6HR MAX TEMP:  31;

MENOMINEE      MOCLDY    27  21  78 NE13      30.55F WCI  16
6HR MIN TEMP:  27; 6HR MAX TEMP:  32;

SAWYER-GWINN   CLOUDY    27  16  63 S13       30.54R WCI  16
$$
MIZ001>003-009>011-084-230100-
WESTERN UPPER MICHIGAN

CITY           SKY/WX    TMP DP  RH WIND       PRES   REMARKS
IRON MOUNTAIN  CLOUDY    28  18  66 SE7       30.50F WCI  21
6HR MIN TEMP:  26; 6HR MAX TEMP:  31;

HOUGHTON       CLOUDY    25  17  72 E7        30.48R WCI  17
6HR MIN TEMP:  21; 6HR MAX TEMP:  25;

COPPER HARBOR    N/A     27  18  69 SW7       30.50F WCI  19
6HR MIN TEMP:  25; 6HR MAX TEMP:  27;

IRONWOOD       CLOUDY    30  12  47 CALM      30.45F
6HR MIN TEMP:  29; 6HR MAX TEMP:  33;

$$

ABBREVIATIONS USED IN REMARKS
   TC - TEMPERATURE IN CELSIUS
  WCI - WIND CHILL INDEX
   HX - HEAT INDEX
  VSB - VISIBILITY




USA.gov is the U.S. government's official web portal to all federal, state and local government web resources and services.